Location: Unspecified
(0.0000°N, 0.0000°E)
Time: 04:55:34
(UTC+00:00)

ISS - Pass Details

Date: 09 March 2019
Orbit: 411 x 421 km, 51.6° (Epoch: 21 October)

Event Time Altitude Azimuth Distance (km) Brightness Sun altitude
Rises 10:23:31 0° 301° (WNW) 2,372 -0.2 62.9°
Reaches altitude 10° 10:25:58 10° 284° (WNW) 1,515 -1.1 63.5°
Maximum altitude 10:28:34 20° 234° (SW) 1,042 -1.7 64.1°
Drops below altitude 10° 10:31:12 10° 184° (S) 1,529 -0.7 64.8°
Sets 10:33:42 0° 167° (SSE) 2,402 0.2 65.4°
